TimePDT,TemperatureF,Dew PointF,Humidity,Sea Level PressureIn,VisibilityMPH,Wind Direction,Wind SpeedMPH,Gust SpeedMPH,PrecipitationIn,Events,Conditions,WindDirDegrees,DateUTC
12:50 AM,66.9,32.0,27,29.99,10.0,West,12.7,-,N/A,,Clear,260,2013-03-15 07:50:00
1:50 AM,66.9,33.1,28,29.98,10.0,WSW,11.5,-,N/A,,Clear,250,2013-03-15 08:50:00
2:50 AM,64.0,32.0,30,29.96,10.0,WSW,10.4,-,N/A,,Clear,250,2013-03-15 09:50:00
3:50 AM,64.0,32.0,30,29.94,10.0,WSW,12.7,-,N/A,,Clear,250,2013-03-15 10:50:00
4:50 AM,64.0,32.0,30,29.95,10.0,West,11.5,-,N/A,,Clear,260,2013-03-15 11:50:00
5:50 AM,63.0,33.1,33,29.94,10.0,West,12.7,-,N/A,,Clear,260,2013-03-15 12:50:00
6:50 AM,61.0,33.1,35,29.97,10.0,WSW,15.0,-,N/A,,Clear,250,2013-03-15 13:50:00
7:50 AM,61.0,34.0,36,29.98,10.0,West,9.2,-,N/A,,Clear,260,2013-03-15 14:50:00
8:50 AM,64.0,34.0,33,29.99,10.0,West,13.8,-,N/A,,Clear,270,2013-03-15 15:50:00
9:50 AM,68.0,34.0,28,29.99,10.0,West,10.4,-,N/A,,Clear,280,2013-03-15 16:50:00
10:50 AM,75.9,33.1,21,29.97,10.0,WNW,15.0,19.6,N/A,,Clear,300,2013-03-15 17:50:00
11:50 AM,82.0,33.1,17,29.95,10.0,WNW,12.7,-,N/A,,Clear,300,2013-03-15 18:50:00
12:50 PM,87.1,28.0,12,29.91,10.0,WNW,10.4,19.6,N/A,,Clear,290,2013-03-15 19:50:00
1:50 PM,90.0,26.1,10,29.86,10.0,WNW,16.1,20.7,N/A,,Clear,290,2013-03-15 20:50:00
2:50 PM,91.0,27.0,10,29.83,10.0,WNW,9.2,20.7,N/A,,Clear,300,2013-03-15 21:50:00
3:50 PM,91.0,28.0,10,29.81,10.0,East,4.6,-,N/A,,Clear,90,2013-03-15 22:50:00
4:50 PM,91.9,21.9,8,29.79,10.0,WSW,10.4,19.6,N/A,,Clear,240,2013-03-15 23:50:00
5:50 PM,89.1,25.0,10,29.79,10.0,SW,11.5,-,N/A,,Clear,230,2013-03-16 00:50:00
6:50 PM,84.0,25.0,12,29.81,10.0,WSW,16.1,-,N/A,,Clear,250,2013-03-16 01:50:00
7:50 PM,79.0,35.1,20,29.85,10.0,West,20.7,-,N/A,,Clear,270,2013-03-16 02:50:00
8:50 PM,75.9,36.0,23,29.87,10.0,West,21.9,25.3,N/A,,Clear,260,2013-03-16 03:50:00
9:50 PM,75.0,34.0,22,29.86,10.0,WSW,20.7,29.9,N/A,,Clear,240,2013-03-16 04:50:00
10:50 PM,73.0,30.9,21,29.85,10.0,WSW,19.6,-,N/A,,Clear,240,2013-03-16 05:50:00
11:50 PM,69.1,32.0,25,29.84,10.0,West,13.8,-,N/A,,Clear,260,2013-03-16 06:50:00